Probability
0 0 0 0 0 0 0 0 0 0 0 0 0 0 0 0 0 4 15 36 63 83 89 85 80 78 75 70 68 68 65 59 54 48 33 14 3 1 0 0 0 0 0 0
0 0 0 0 0 0 0 0 0 0 0 0 0 0 0 0 0 3 13 36 67 88 91 87 84 85 85 82 79 77 70 60 51 42 27 10 1 0 0 0 0 0 0 0
0 0 0 0 0 0 0 0 0 0 0 0 0 0 0 0 0 2 9 33 67 91 93 87 85 87 88 86 81 77 70 57 41 26 14 5 0 0 0 0 0 0 0 0
0 0 0 0 0 0 0 0 0 0 0 0 0 0 0 0 0 1 5 25 60 88 95 90 82 77 73 67 62 59 53 42 27 13 4 2 0 0 0 0 0 0 0 0
0 0 0 0 0 0 0 0 0 0 0 0 0 0 0 0 0 0 5 23 55 85 96 90 76 60 48 39 35 33 30 23 14 6 2 1 0 0 0 0 0 0 0 0
0 0 0 0 0 0 0 0 0 0 0 0 0 0 0 0 0 0 7 28 57 82 90 77 55 37 25 17 14 14 13 9 5 2 1 0 0 0 0 0 0 0 0 0
0 0 0 0 0 0 0 0 0 0 0 0 0 0 0 0 0 1 10 36 65 82 77 52 26 14 9 6 4 4 3 2 0 0 0 0 0 0 0 0 0 0 0 0
0 0 0 0 0 0 0 0 0 0 0 0 0 0 0 0 0 1 13 43 72 80 62 31 9 3 2 1 0 0 0 0 0 0 0 0 0 0 0 0 0 0 0 0
0 0 0 0 0 0 0 0 0 0 0 0 0 0 0 0 0 2 17 51 78 74 45 16 2 0 0 0 0 0 0 0 0 0 0 0 0 0 0 0 0 0 0 0
0 0 0 0 0 0 0 0 0 0 0 0 0 0 0 0 0 2 21 57 79 65 32 7 0 0 0 0 0 0 0 0 0 0 0 0 0 0 0 0 0 0 0 0
0 0 0 0 0 0 0 0 0 0 0 0 0 0 0 0 0 2 23 60 77 56 23 4 0 0 0 0 0 0 0 0 0 0 0 0 0 0 0 0 0 0 0 0
0 0 0 0 0 0 0 0 0 0 0 0 0 0 0 0 0 3 26 62 73 46 15 2 0 0 0 0 0 0 0 0 0 0 0 0 0 0 0 0 0 0 0 0
0 0 0 0 0 0 0 0 0 0 0 0 0 0 0 0 0 5 31 64 64 33 8 0 0 0 0 0 0 0 0 0 0 0 0 0 0 0 0 0 0 0 0 0
0 0 0 0 0 0 0 0 0 0 0 0 0 0 0 0 1 10 37 59 48 20 4 0 0 0 0 0 0 0 0 0 0 0 0 0 0 0 0 0 0 0 0 0
0 0 0 0 0 0 0 0 0 0 0 0 0 0 0 1 3 17 44 53 32 10 2 0 0 0 0 0 0 0 0 0 0 0 0 0 0 0 0 0 0 0 0 0
0 0 0 0 0 0 0 0 0 0 0 0 0 2 3 4 9 29 54 51 23 5 1 0 0 0 0 0 0 0 0 0 0 0 0 0 0 0 0 0 0 0 0 0
0 0 0 0 0 0 0 0 0 0 0 2 4 9 13 15 21 40 56 46 21 5 1 0 0 0 0 0 0 0 0 0 0 0 0 0 0 0 0 0 0 0 0 0
0 0 0 0 0 0 0 0 0 0 1 3 8 14 18 20 25 35 40 32 16 5 1 0 0 0 0 0 0 0 0 0 0 0 0 0 0 0 0 0 0 0 0 0
0 0 0 0 0 0 0 0 0 0 0 2 6 9 10 10 13 16 16 13 8 3 0 0 0 0 0 0 0 0 0 0 0 0 0 0 0 0 0 0 0 0 0 0
0 0 0 0 0 0 0 0 0 0 0 0 1 2 1 1 2 3 3 2 1 0 0 0 0 0 0 0 0 0 0 0 0 0 0 0 0 0 0 0 0 0 0 0
0 0 0 0 0 0 0 0 0 0 0 0 0 0 0 0 1 1 0 0 0 0 0 0 0 0 0 0 0 0 0 0 0 0 0 0 0 0 0 0 0 0 0 0
0 0 0 0 0 0 0 0 0 0 0 0 0 0 0 0 0 0 0 0 0 0 0 0 0 0 0 0 0 0 0 0 0 0 0 0 0 0 0 0 0 0 0 0
0 0 0 0 0 0 0 0 0 0 0 0 0 0 0 0 0 0 0 0 0 0 0 0 0 0 0 0 0 0 0 0 0 0 0 0 0 0 0 0 0 0 0 0
0 0 0 0 0 0 0 0 0 0 0 0 0 0 0 0 0 0 0 0 0 0 0 0 0 0 0 0 0 0 0 0 0 0 0 0 0 0 0 0 0 0 0 0
0 0 0 0 0 0 0 0 0 0 0 0 0 0 0 0 0 0 0 0 0 0 0 0 0 0 0 0 0 0 0 0 0 0 0 0 0 0 0 0 0 0 0 0
0 0 0 0 0 0 0 0 0 0 0 0 0 0 0 0 0 0 0 0 0 0 0 0 0 0 0 0 0 0 0 0 0 0 0 0 0 0 0 0 0 0 0 0
Wind_Speed
11 12 15 15 15 14 9 11 13 12 6 10 13 13 9 6 10 12 12 13 15 16 13 11 10 9 9 9 9 9 10 10 8 8 8 7 7 7 7 8 9 8 8 7
10 16 16 10 10 12 13 14 15 13 7 9 13 15 11 9 11 11 12 14 15 15 14 12 10 9 9 9 10 10 11 10 8 7 7 7 8 8 8 7 7 7 7 6
18 6 9 11 12 13 15 15 15 14 11 10 12 18 17 11 11 11 13 15 17 18 16 14 12 11 11 11 10 9 11 10 10 11 9 9 9 7 6 6 5 5 5 5
16 14 7 12 16 16 15 14 14 15 15 14 10 14 15 12 12 13 14 16 18 18 17 15 14 13 12 12 11 12 12 12 11 11 10 10 8 7 5 4 4 3 3 3
12 13 15 16 15 14 14 10 12 14 15 16 13 13 14 9 13 15 16 16 17 18 17 16 15 14 13 13 13 13 13 13 12 11 12 11 9 7 5 4 4 2 2 2
15 7 10 13 13 11 10 8 10 13 14 18 17 16 15 11 12 12 13 15 15 15 15 15 14 14 14 13 13 13 14 13 12 11 10 10 10 8 6 4 2 1 1 1
17 14 12 9 10 9 11 11 10 12 14 16 15 14 13 10 8 8 6 12 13 14 15 15 16 15 15 14 14 13 13 11 10 10 9 9 9 8 6 2 3 1 1 1
16 15 18 16 18 15 14 16 13 12 12 11 9 11 10 4 3 4 6 11 15 16 16 16 17 16 16 15 14 13 12 11 10 9 9 8 7 5 5 4 2 2 2 2
9 11 8 11 14 17 17 16 18 17 18 16 13 13 7 9 11 10 11 14 17 17 16 17 17 16 16 15 13 12 11 11 10 9 9 8 7 6 6 4 1 1 2 3
8 10 11 10 12 16 18 15 10 13 17 18 17 17 13 11 11 11 12 15 15 16 16 17 16 16 14 12 11 11 11 11 10 9 7 6 7 5 4 1 3 3 3 3
5 10 12 8 12 17 16 16 14 14 14 16 16 13 7 7 6 7 12 16 17 17 17 17 16 15 13 12 12 11 11 10 9 8 7 6 5 3 1 1 2 2 4 4
1 6 11 11 4 6 10 14 15 15 15 15 15 14 2 3 6 8 10 15 17 17 17 17 17 15 13 12 11 10 10 9 8 7 6 5 3 1 1 1 3 4 5 6
3 5 9 11 9 8 8 8 10 11 11 13 15 12 5 1 4 6 10 15 16 17 17 16 16 14 13 11 10 10 9 8 7 6 5 3 1 1 1 3 4 6 7 8
5 6 8 11 7 4 5 5 5 9 12 13 12 11 1 3 2 5 10 15 16 16 16 16 15 13 11 10 9 9 8 7 6 5 4 3 2 2 3 5 6 8 9 10
5 9 9 10 8 8 10 9 9 10 12 12 11 9 6 7 4 3 9 13 14 15 15 15 14 12 10 9 8 8 7 6 4 4 4 4 2 2 4 6 8 8 8 9
3 8 9 13 13 12 14 14 14 14 14 15 15 13 6 6 3 4 9 13 13 13 14 14 13 12 10 9 8 8 6 4 4 4 3 3 2 4 5 6 6 6 6 7
4 6 9 12 11 12 17 12 11 12 12 11 12 10 10 8 4 4 8 12 13 13 14 14 12 10 8 8 8 6 5 4 4 3 1 1 3 5 5 5 5 6 6 6
7 9 8 10 8 12 1 7 6 7 4 9 9 10 11 9 5 3 2 9 12 13 14 13 12 10 8 7 6 6 6 5 3 2 1 3 4 4 5 5 6 6 6 6
8 10 8 8 10 9 4 6 7 6 1 11 11 10 8 5 2 4 5 3 8 12 14 13 12 10 7 7 7 6 5 4 2 2 4 5 5 5 5 5 6 6 6 6
5 8 9 8 8 7 4 8 6 6 5 11 13 11 8 5 3 5 9 13 16 16 14 13 11 9 6 6 6 5 4 3 3 5 6 6 6 5 5 5 5 5 5 6
9 8 10 9 8 5 7 8 7 8 4 13 13 11 7 3 5 9 13 15 15 16 15 12 10 8 7 6 5 4 4 5 6 6 7 6 5 4 4 4 4 5 6 6
6 5 7 7 9 2 9 8 7 10 13 12 11 8 3 6 11 13 14 15 15 15 13 10 9 9 7 5 4 5 6 6 6 7 6 5 4 4 4 4 4 5 6 7
4 5 4 4 3 6 5 7 9 11 12 11 8 3 7 11 13 14 14 14 13 12 11 11 12 10 7 5 4 7 7 6 7 6 5 4 4 4 5 4 5 5 6 6
3 2 6 7 5 7 9 8 9 11 11 8 4 4 11 14 15 15 14 12 12 13 13 12 11 10 8 6 7 7 7 7 6 5 4 4 4 5 6 5 6 6 6 7
3 4 7 10 10 8 5 7 11 9 5 2 7 11 14 16 15 14 13 13 13 12 11 10 9 9 9 8 8 8 7 6 6 5 4 4 5 6 5 6 6 7 7 7
5 6 7 7 7 8 9 9 8 3 5 10 14 15 15 15 16 15 13 13 12 11 10 9 9 9 9 10 9 8 7 6 5 5 5 5 5 6 6 5 4 3 3 3
Wind_Direction
190 213 218 219 224 254 269 259 252 249 256 266 255 253 239 235 236 230 221 211 199 193 164 148 153 152 147 147 149 148 141 140 147 144 141 127 111 100 89 79 74 73 69 67
194 227 232 235 226 235 240 245 251 253 240 267 266 258 245 234 240 239 229 215 204 184 161 160 162 159 148 140 137 137 138 144 149 131 115 109 107 94 85 80 74 72 70 64
220 235 225 213 211 223 235 246 256 261 261 245 261 256 239 219 233 236 233 223 208 191 177 170 168 159 147 138 136 130 129 134 129 128 121 119 113 114 107 102 94 79 77 71
232 228 195 217 226 230 241 240 255 262 262 259 240 269 245 213 222 227 224 218 211 194 183 177 169 159 148 137 131 126 125 122 126 133 131 132 129 124 124 131 123 108 66 47
219 228 218 227 234 232 248 261 251 252 257 264 250 257 264 219 235 232 220 214 208 194 183 178 168 155 142 136 130 126 122 119 120 119 123 127 128 130 136 135 123 133 107 45
239 216 229 237 235 234 240 243 247 248 251 250 249 254 260 234 235 245 214 205 202 189 171 163 153 143 137 133 129 127 124 122 127 130 131 131 130 131 131 143 152 216 89 58
226 217 214 224 221 201 218 229 234 229 227 244 242 247 260 264 260 269 224 191 185 175 161 153 148 143 140 138 134 132 130 131 133 129 125 124 125 131 131 134 107 6 3 22
218 224 214 217 232 236 221 232 250 266 263 261 219 235 259 243 251 259 221 182 175 172 163 156 152 147 145 143 141 142 140 137 135 127 122 120 124 116 105 93 60 58 336 349
236 237 206 216 226 235 241 237 249 261 268 274 269 264 251 239 237 227 203 180 176 171 159 154 152 149 149 149 150 148 139 135 132 126 123 116 104 90 91 106 145 2 352 325
262 251 235 223 235 234 249 251 248 246 256 263 263 259 254 249 241 222 203 186 175 163 155 154 153 152 152 151 147 140 137 134 130 126 117 111 106 102 101 51 36 6 344 347
246 245 242 223 228 243 225 234 237 250 255 264 270 271 292 257 263 247 206 183 170 161 156 155 154 153 151 148 145 140 136 134 126 116 108 102 96 92 76 21 347 338 330 322
355 267 255 243 249 293 265 243 240 250 257 258 269 278 354 257 273 256 210 173 162 159 157 156 153 150 152 151 144 138 135 129 123 115 110 101 92 74 342 347 334 314 301 298
340 259 251 235 209 212 234 239 256 256 265 267 271 279 104 258 267 235 195 162 154 157 156 155 153 154 152 148 142 137 132 124 120 117 115 103 82 39 330 322 312 302 295 292
287 267 269 275 325 339 266 244 242 249 255 266 265 286 324 15 312 199 175 157 157 160 160 159 156 152 147 144 139 130 121 116 114 113 102 88 68 17 323 309 303 297 295 294
294 265 264 276 285 286 284 279 274 268 279 284 289 291 330 1 330 208 170 156 160 164 165 162 155 147 142 137 127 114 109 112 119 116 103 94 66 340 307 304 305 307 309 310
308 278 272 264 259 267 272 268 269 272 276 277 278 280 11 7 330 202 173 163 167 169 165 156 147 143 137 129 117 110 112 124 130 113 99 76 346 317 320 325 332 341 350 352
264 264 261 265 264 275 262 274 284 279 285 301 294 332 354 333 310 245 191 173 172 168 158 149 142 135 127 120 118 122 137 140 134 121 88 347 334 339 355 10 24 20 7 355
267 261 261 259 252 249 34 40 351 305 24 10 351 350 346 344 350 336 211 180 169 158 145 136 129 119 118 121 128 141 139 132 132 117 14 6 8 34 52 44 29 10 355 348
245 249 251 251 245 258 187 51 1 317 108 31 5 358 355 1 10 47 33 103 123 120 118 116 113 115 127 134 137 134 123 123 126 52 30 35 54 68 51 32 16 3 352 352
212 228 240 234 244 245 70 25 340 269 218 32 4 355 347 318 304 70 74 89 96 103 106 108 112 120 126 122 119 119 121 117 67 49 61 75 72 57 40 26 6 4 351 352
203 208 224 230 237 249 53 353 303 253 358 1 346 343 338 349 47 93 100 100 103 106 108 113 120 123 117 116 117 119 105 68 61 78 92 85 72 56 34 21 6 350 350 0
246 232 226 229 237 219 35 356 345 333 329 323 325 335 29 101 107 106 107 108 109 110 113 120 120 114 113 126 135 111 74 72 89 100 98 83 52 21 21 8 355 0 1 358
257 303 299 274 303 27 357 327 318 311 306 306 307 325 134 127 119 115 112 110 113 119 126 130 127 130 141 149 117 84 81 95 108 109 93 67 45 34 16 2 14 21 12 0
188 244 271 273 276 319 323 318 321 319 310 305 302 141 134 125 121 119 117 120 128 133 135 139 140 136 128 112 86 83 97 109 114 99 77 58 41 46 52 26 25 22 13 8
278 246 261 270 285 294 295 329 330 324 326 80 111 119 122 121 121 122 126 131 131 132 134 135 128 121 112 101 95 98 106 112 100 81 63 54 55 50 46 49 36 20 37 17
246 258 270 288 332 315 314 333 334 352 105 116 116 114 117 122 126 129 128 127 127 126 126 123 120 113 106 103 101 100 101 89 74 69 57 52 53 48 37 33 61 103 36 357